{"data":{"norad_id":60541,"epoch":"2026-05-25T04:31:58.184832Z","epoch_age_seconds":65626,"freshness":"FRESH","line1":"1 60541U 24149CB  26145.18886788  .00018525  00000+0  93323-3 0  9991","line2":"2 60541  97.6922 232.0088 0001397 121.9439 238.1930 15.17229840 97231","mean_motion":15.1722984,"eccentricity":0.0001397,"inclination_deg":97.6922,"raan_deg":232.0088,"arg_perigee_deg":121.9439,"mean_anomaly_deg":238.193,"bstar":0.00093323,"rev_number":9723,"period_min":94.909812741358,"perigee_km":513.25438700277,"apogee_km":515.18011077991,"semimajor_km":6892.3542488913,"source":"CELESTRAK","updated_at":"2026-05-25T13:38:02.149165Z"}}